Tiempo cada hora Dadra and Nagar Haveli

Hoy, 29 Noviembre, Domingo

Tiempo Temperatura Precipitaciones Viento Presión Humedad
00:00 +27°C° 0 mm 3 mps 754 mmHg 53%
01:00 +27°C° 0 mm 3 mps 753 mmHg 54%
02:00 +27°C° 0 mm 3 mps 753 mmHg 54%
03:00 +27°C° 0 mm 3 mps 753 mmHg 54%
04:00 +27°C° 0 mm 3 mps 753 mmHg 54%
05:00 +27°C° 0 mm 2 mps 753 mmHg 58%
06:00 +27°C° 0 mm 2 mps 754 mmHg 58%
07:00 +28°C° 0 mm 3 mps 754 mmHg 59%
08:00 +28°C° 0 mm 3 mps 755 mmHg 59%
09:00 +30°C° 0 mm 3 mps 755 mmHg 55%
10:00 +31°C° 0 mm 3 mps 755 mmHg 51%
11:00 +34°C° 0 mm 2 mps 755 mmHg 46%
12:00 +34°C° 0 mm 2 mps 754 mmHg 45%
13:00 +35°C° 0 mm 2 mps 753 mmHg 44%
14:00 +35°C° 0 mm 2 mps 752 mmHg 44%
15:00 +32°C° 0 mm 2 mps 752 mmHg 50%
16:00 +31°C° 0 mm 2 mps 752 mmHg 55%
17:00 +29°C° 0 mm 2 mps 753 mmHg 61%
18:00 +28°C° 0 mm 2 mps 753 mmHg 64%
19:00 +27°C° 0 mm 1 mps 753 mmHg 68%
20:00 +26°C° 0 mm 1 mps 754 mmHg 71%
21:00 +26°C° 0 mm 1 mps 754 mmHg 71%
22:00 +26°C° 0 mm 1 mps 754 mmHg 71%
23:00 +26°C° 0 mm 1 mps 754 mmHg 71%

Mañana, 30 Noviembre, Lunes

Tiempo Temperatura Precipitaciones Viento Presión Humedad
00:00 +26°C° 0 mm 1 mps 754 mmHg 71%
01:00 +25°C° 0 mm 1 mps 753 mmHg 72%
02:00 +25°C° 0 mm 1 mps 753 mmHg 72%
03:00 +25°C° 0 mm 1 mps 753 mmHg 72%
04:00 +23°C° 0 mm 0 mps 753 mmHg 71%
05:00 +23°C° 0 mm 0 mps 753 mmHg 71%
06:00 +26°C° 0 mm 1 mps 754 mmHg 68%
07:00 +27°C° 0 mm 1 mps 754 mmHg 64%
08:00 +28°C° 0 mm 1 mps 755 mmHg 61%
09:00 +30°C° 0 mm 1 mps 755 mmHg 55%
10:00 +32°C° 0 mm 1 mps 755 mmHg 50%
11:00 +34°C° 0 mm 1 mps 755 mmHg 44%
12:00 +35°C° 0 mm 1 mps 754 mmHg 43%
13:00 +36°C° 0 mm 2 mps 753 mmHg 42%
14:00 +36°C° 0 mm 2 mps 753 mmHg 41%
15:00 +35°C° 0 mm 2 mps 753 mmHg 47%
16:00 +32°C° 0 mm 2 mps 753 mmHg 52%
17:00 +30°C° 0 mm 2 mps 753 mmHg 58%
18:00 +30°C° 0 mm 1 mps 753 mmHg 60%
19:00 +29°C° 0 mm 1 mps 754 mmHg 63%
20:00 +26°C° 0 mm 0 mps 754 mmHg 65%
21:00 +26°C° 0 mm 0 mps 754 mmHg 65%
22:00 +28°C° 0 mm 1 mps 754 mmHg 64%
23:00 +28°C° 0 mm 1 mps 754 mmHg 64%

Pasado mañana, 1 Diciembre, Martes

Tiempo Temperatura Precipitaciones Viento Presión Humedad
00:00 +27°C° 0 mm 1 mps 754 mmHg 64%
01:00 +27°C° 0 mm 1 mps 754 mmHg 65%
02:00 +27°C° 0 mm 1 mps 753 mmHg 65%
03:00 +27°C° 0 mm 1 mps 753 mmHg 66%
04:00 +26°C° 0 mm 1 mps 753 mmHg 66%
05:00 +26°C° 0 mm 1 mps 753 mmHg 67%
06:00 +27°C° 0 mm 1 mps 754 mmHg 65%
07:00 +28°C° 0 mm 1 mps 754 mmHg 62%
08:00 +29°C° 0 mm 1 mps 755 mmHg 60%
09:00 +31°C° 0 mm 1 mps 755 mmHg 54%
10:00 +34°C° 0 mm 2 mps 755 mmHg 47%
11:00 +36°C° 0 mm 2 mps 755 mmHg 41%
12:00 +36°C° 0 mm 2 mps 754 mmHg 39%
13:00 +37°C° 0 mm 2 mps 753 mmHg 37%
14:00 +37°C° 0 mm 2 mps 752 mmHg 35%
15:00 +36°C° 0 mm 3 mps 752 mmHg 41%
16:00 +34°C° 0 mm 3 mps 752 mmHg 47%
17:00 +31°C° 0 mm 3 mps 752 mmHg 53%
18:00 +30°C° 0 mm 3 mps 752 mmHg 55%
19:00 +29°C° 0 mm 2 mps 753 mmHg 58%
20:00 +28°C° 0 mm 2 mps 754 mmHg 60%
21:00 +28°C° 0 mm 1 mps 754 mmHg 59%
22:00 +27°C° 0 mm 1 mps 754 mmHg 58%
23:00 +27°C° 0 mm 1 mps 754 mmHg 58%

2 Diciembre, Miércoles

Tiempo Temperatura Precipitaciones Viento Presión Humedad
00:00 +27°C° 0 mm 1 mps 754 mmHg 55%
01:00 +27°C° 0 mm 2 mps 753 mmHg 52%
02:00 +26°C° 0 mm 2 mps 753 mmHg 49%
03:00 +26°C° 0 mm 2 mps 753 mmHg 48%
04:00 +26°C° 0 mm 2 mps 753 mmHg 47%
05:00 +25°C° 0 mm 2 mps 753 mmHg 47%
06:00 +26°C° 0 mm 2 mps 753 mmHg 46%
07:00 +27°C° 0 mm 2 mps 754 mmHg 46%
08:00 +28°C° 0 mm 2 mps 754 mmHg 46%
09:00 +30°C° 0 mm 2 mps 754 mmHg 40%
10:00 +34°C° 0 mm 2 mps 754 mmHg 35%
11:00 +36°C° 0 mm 2 mps 754 mmHg 29%
12:00 +36°C° 0 mm 2 mps 753 mmHg 27%
13:00 +37°C° 0 mm 2 mps 753 mmHg 26%
14:00 +37°C° 0 mm 2 mps 752 mmHg 24%
15:00 +35°C° 0 mm 2 mps 752 mmHg 30%
16:00 +32°C° 0 mm 2 mps 751 mmHg 35%
17:00 +30°C° 0 mm 2 mps 751 mmHg 40%
18:00 +29°C° 0 mm 2 mps 752 mmHg 44%
19:00 +27°C° 0 mm 1 mps 752 mmHg 48%
20:00 +24°C° 0 mm 0 mps 753 mmHg 52%
21:00 +26°C° 0 mm 1 mps 753 mmHg 51%
22:00 +25°C° 0 mm 1 mps 753 mmHg 50%
23:00 +25°C° 0 mm 1 mps 753 mmHg 49%

3 Diciembre, Jueves

Tiempo Temperatura Precipitaciones Viento Presión Humedad
00:00 +24°C° 0 mm 1 mps 753 mmHg 48%
01:00 +24°C° 0 mm 1 mps 752 mmHg 47%
02:00 +24°C° 0 mm 1 mps 752 mmHg 45%
03:00 +24°C° 0 mm 1 mps 752 mmHg 45%
04:00 +23°C° 0 mm 1 mps 752 mmHg 45%
05:00 +23°C° 0 mm 1 mps 752 mmHg 45%
06:00 +24°C° 0 mm 1 mps 753 mmHg 44%
07:00 +25°C° 0 mm 1 mps 753 mmHg 42%
08:00 +26°C° 0 mm 1 mps 754 mmHg 41%
09:00 +29°C° 0 mm 1 mps 754 mmHg 36%
10:00 +32°C° 0 mm 1 mps 754 mmHg 32%
11:00 +34°C° 0 mm 1 mps 754 mmHg 27%
12:00 +35°C° 0 mm 2 mps 753 mmHg 26%
13:00 +36°C° 0 mm 2 mps 752 mmHg 25%
14:00 +36°C° 0 mm 2 mps 752 mmHg 24%
15:00 +34°C° 0 mm 2 mps 752 mmHg 29%
16:00 +31°C° 0 mm 2 mps 751 mmHg 34%
17:00 +29°C° 0 mm 2 mps 751 mmHg 40%
18:00 +28°C° 0 mm 2 mps 752 mmHg 42%
19:00 +27°C° 0 mm 1 mps 752 mmHg 44%
20:00 +25°C° 0 mm 1 mps 752 mmHg 46%
21:00 +25°C° 0 mm 1 mps 752 mmHg 45%
22:00 +25°C° 0 mm 1 mps 752 mmHg 44%
23:00 +25°C° 0 mm 1 mps 752 mmHg 43%

4 Diciembre, Viernes

Tiempo Temperatura Precipitaciones Viento Presión Humedad
00:00 +24°C° 0 mm 1 mps 752 mmHg 43%
01:00 +24°C° 0 mm 1 mps 752 mmHg 44%
02:00 +21°C° 0 mm 0 mps 751 mmHg 44%
03:00 +23°C° 0 mm 1 mps 751 mmHg 44%
04:00 +23°C° 0 mm 1 mps 751 mmHg 44%
05:00 +22°C° 0 mm 1 mps 751 mmHg 44%
06:00 +24°C° 0 mm 1 mps 752 mmHg 42%
07:00 +25°C° 0 mm 1 mps 753 mmHg 41%
08:00 +26°C° 0 mm 1 mps 753 mmHg 40%
09:00 +29°C° 0 mm 1 mps 753 mmHg 36%
10:00 +32°C° 0 mm 1 mps 753 mmHg 31%
11:00 +34°C° 0 mm 1 mps 753 mmHg 27%
12:00 +35°C° 0 mm 1 mps 752 mmHg 26%
13:00 +35°C° 0 mm 1 mps 751 mmHg 25%
14:00 +36°C° 0 mm 2 mps 751 mmHg 25%
15:00 +34°C° 0 mm 2 mps 751 mmHg 31%
16:00 +31°C° 0 mm 2 mps 751 mmHg 38%
17:00 +29°C° 0 mm 2 mps 751 mmHg 45%
18:00 +28°C° 0 mm 2 mps 751 mmHg 46%
19:00 +26°C° 0 mm 1 mps 752 mmHg 48%
20:00 +25°C° 0 mm 1 mps 752 mmHg 50%
21:00 +25°C° 0 mm 1 mps 752 mmHg 49%
22:00 +25°C° 0 mm 1 mps 752 mmHg 48%
23:00 +22°C° 0 mm 0 mps 752 mmHg 47%
Mostrar más

Necesitamos Su Consentimiento

Meteoprog y nuestros Proveedores de Servicios pueden almacenar y acceder a sus datos personales como cookies, identificadores de dispositivo u otras tecnologías similares de su dispositivo y procesar dichos datos para personalizar contenido y anuncios, además de ofrecer funciones de redes sociales y analizar el tráfico.

  • Almacenar y/o acceder a información en su dispositivo

    Se puede almacenar o acceder a cookies, identificadores de dispositivo u otra información de su dispositivo para los fines anteriormente indicados.

  • Anuncios y contenido personalizados, medición de anuncios y contenido, percepciones del público, y desarrollo de productos

    Los anuncios y el contenido pueden personalizarse en base a su perfil. Se pueden añadir más datos para personalizar mejor los anuncios y contenidos. Se puede medir el rendimiento de los anuncios y contenidos. Se puede obtener la percepción sobre el público que ha visto los anuncios y contenidos. Dichos datos pueden usarse para desarrollar o mejorar la experiencia del usuario, sistemas y software.

Al hacer clic en ‘Estoy De Acuerdo’ usted permitirá el uso de las cookies, identificadores de dispositivo, balizas web u otras tecnologías similares indicadas. Su configuración puede cambiarse desde el navegador de su dispositivo.

Para ciertos fines, los intereses legítimos pueden ser considerados por encima del consentimiento. Puede leer más sobre ello en nuestra Política de Privacidad y Cookies.